Regional Weather Roundup
Issued by NWS Mt. Holly, NJ

Home | Current Version | Previous Version | Text Only | Print | Product List | Glossary On
Versions: 1 2 3 4 5 6 7 8 9 10 11 12 13 14 15 16 17 18 19 20 21 22 23 24 25 26 27 28 29 30 31 32 33 34 35 36 37 38 39 40 41 42 43 44 45 46 47 48 49 50
000
ASUS41 KPHI 310112
RWRPHI

REGIONAL WEATHER ROUNDUP
NATIONAL WEATHER SERVICE MOUNT HOLLY NJ
900 PM EDT THU JUL 30 2015

NOTE:  "FAIR" INDICATES FEW OR NO CLOUDS BELOW 12,000 FEET WITH NO
SIGNIFICANT WEATHER AND/OR OBSTRUCTIONS TO VISIBILITY.

 * = STATION DOES NOT REPORT PRECIPITATION (E.G. RAIN, SNOW, ETC.)
        OR FOG.

NJZ015>026-310200-
SOUTHERN NEW JERSEY

CITY           SKY/WX    TMP DP  RH WIND       PRES   REMARKS
POMONA         CLOUDY    78  74  87 CALM      29.86S
RIO GRANDE*    CLOUDY    77  72  83 SW5       29.88R
MILLVILLE      MOCLDY    77  74  90 SW3       29.87R
WRIGHTSTOWN    CLOUDY    75  75  99 SW5       29.83R
MOUNT HOLLY    CLOUDY    75  74  96 CALM      29.85R
TRENTON        MOCLDY    76  73  91 SW5       29.84R

$$
NJZ001>014-310200-
NORTHERN NEW JERSEY

CITY           SKY/WX    TMP DP  RH WIND       PRES   REMARKS
SUSSEX         MOCLDY    77  74  90 CALM      29.84R
ANDOVER*         N/A     75  74  96 CALM      29.85R
MORRISTOWN     MOCLDY    79  75  89 S3        29.83S
NEWARK         MOCLDY    78  72  81 SW8       29.82R
TETERBORO      CLOUDY    79  72  79 S7        29.81R
CALDWELL       MOCLDY    78  72  81 SW3       29.83R
SOMERVILLE     PTCLDY    75  73  93 CALM      29.82R FOG
ALLAIRE*       CLOUDY    75  70  83 SW5       29.84S
TOMS RIVER*      N/A     75  73  94 SW5       29.86R

$$
PAZ043-044-047-054-055-060>062-066>071-310200-
EASTERN PENNSYLVANIA

CITY           SKY/WX    TMP DP  RH WIND       PRES   REMARKS
PHILADELPHIA   MOCLDY    79  73  82 SW8       29.86R
NORTH PHILA    MOCLDY    79  70  74 SW7       29.86R
BLUE BELL      PTCLDY    75  73  94 CALM      29.85R
DOYLESTOWN     PTCLDY    75  72  90 SW3       29.85R
QUAKERTOWN*    PTCLDY    75  73  94 CALM      29.87R
POTTSTOWN      PTCLDY    77  74  90 S3        29.88R
LANCASTER      PTCLDY    77  67  71 W6        29.87R
COATESVILLE    PTCLDY    73  73 100 W5        29.90R FOG
READING        PTCLDY    78  67  68 W5        29.85R
ALLENTOWN      MOCLDY    78  73  84 SW6       29.84R
MOUNT POCONO   PTCLDY    71  61  70 CALM      29.92R
HAZLETON       PTCLDY    75  59  57 CALM      29.94R
WILKES BARRE   PTCLDY    74  65  73 E3        29.87R

$$
DEZALL-MDZ008-012-015-019-020-310200-
DELAWARE AND EASTERN MARYLAND

CITY           SKY/WX    TMP DP  RH WIND       PRES   REMARKS
WILMINGTON     PTCLDY    77  74  90 W3        29.87R
DOVER          MOCLDY    77  77 100 SW7       29.86R
GEORGETOWN     CLOUDY    77  74  90 W5        29.88R
EASTON         MOCLDY    79  79 100 SW7       29.91R
PATUXENT       CLOUDY    76  74  93 CALM      29.87S
OCEAN CITY     LGT RAIN  79  76  90 W5        29.88R
WALLOPS ISLAND LGT RAIN  80  79  96 NW7       29.89R
CAMBRIDGE      CLOUDY    77  73  88 CALM      29.87S
SALISBURY      CLOUDY    76  75  97 W5        29.88R

$$
PAZ001-021-NYZ056-072-MDZ011-DCZ001-310200-
OTHER NEARBY LOCATIONS

CITY           SKY/WX    TMP DP  RH WIND       PRES   REMARKS
HARRISBURG     PTCLDY    80  63  55 NW3       29.86R
STATE COLLEGE  PTCLDY    75  59  57 W6        29.94R
WILLIAMSPORT   PTCLDY    77  61  57 W6        29.86R
BINGHAMTON     CLEAR     72  58  61 NW6       29.91R
NEW YORK CITY  PTCLDY    77  72  84 VRB5      29.85R
BALTIMORE      MOCLDY    80  75  84 SW5       29.87R
WASHINGTON DC  CLOUDY    83  74  74 SW7       29.88R

$$


USA.gov is the U.S. government's official web portal to all federal, state and local government web resources and services.